Regional Weather Roundup
Issued by NWS Cleveland, OH

Home | Current Version | Previous Version | Graphics & Text | Print | Product List | Glossary On
Versions: 1 2 3 4 5 6 7 8 9 10 11 12 13 14 15 16 17 18 19 20 21 22 23 24 25 26 27 28 29 30 31 32 33 34 35 36 37 38 39 40 41 42 43 44 45 46 47 48 49 50
000
ASUS41 KCLE 270110
RWRCLE
OHIO REGIONAL WEATHER ROUNDUP
NATIONAL WEATHER SERVICE CLEVELAND, OH
900 PM EDT TUE MAY 26 2015

NOTE: "FAIR" INDICATES FEW OR NO CLOUDS BELOW 12,000 FEET WITH NO
SIGNIFICANT WEATHER AND/OR OBSTRUCTIONS TO VISIBILITY.

OHZ001>008-015>018-024>027-034-035-043-044-270200-
   NORTHWEST OHIO

CITY           SKY/WX    TMP DP  RH WIND       PRES   REMARKS
DEFIANCE       MOCLDY    71  65  81 S10G22    29.90S
FINDLAY        CLOUDY    71  66  84 S15       29.93S
TOLEDO EXPRESS CLOUDY    68  65  90 S9G16     29.90S
TOLEDO EXEC    CLOUDY    70  65  84 S15       29.92S
LIMA           MOCLDY    70  66  87 S12       29.94F
$$

OHZ009>014-019>023-028>033-038-089-270200-
   NORTHEAST OHIO

CITY           SKY/WX    TMP DP  RH WIND       PRES   REMARKS
CLE-HOPKINS    CLOUDY    74  66  76 S12       29.98F
CLE-LAKEFRONT  CLOUDY    73  64  73 S16G23    29.96F
CUY CO. ARPT   MOCLDY    70  66  88 S14       29.99F
LORAIN-ELYRIA  LGT RAIN  71  65  81 SW20G41   29.99R
ASHTABULA      MOCLDY    78  63  59 SW13      30.02R
AKRON-CANTON   CLOUDY    73  68  84 S9        30.03S
WOOSTER        CLOUDY    72  67  84 W9        30.03R
MANSFIELD      CLOUDY    67  65  93 S10       30.01F
YOUNGSTOWN     LGT RAIN  72  66  81 S6        30.04S
$$

OHZ042-051>053-060>062-070>072-077>081-270200-
  SOUTHWEST OHIO

CITY           SKY/WX    TMP DP  RH WIND       PRES   REMARKS
CINC-COVINGTON LGT RAIN  71  68  90 S15       30.03R
CINC-LUNKEN    LGT RAIN  71  71 100 S10       30.02R
HAMILTON       LGT RAIN  72  70  93 S6        30.00S
DAYTON         CLOUDY    71  68  90 S12       29.99F
WRIGHT-PAT AFB MOCLDY    70  69  98 SE8       29.99S
DAYTON GENERAL CLOUDY    69  68  96 S9        29.99F
WILMINGTON     CLOUDY    69  66  90 SW13      30.02S
$$

OHZ036-037-039>041-045>050-054>059-063>069-073>076-082>088-270200-
  CENTRAL AND SOUTHEAST OHIO

CITY           SKY/WX    TMP DP  RH WIND       PRES   REMARKS
COLUMBUS       TSTM      68  66  94 SW9       30.01S
OSU AIRPORT    LGT RAIN  69  66  90 SW7       30.00F
BOLTON FIELD   NOT AVBL
RICKENBACK AFB TSTM      67  66  95 SW9       30.01R
NEWARK         TSTM      71  68  90 VRB6      30.00R FOG
MARION         CLOUDY    68  65  90 S9        30.00F
LANCASTER      TSTM      70  66  87 W24G37    30.02R FOG
ZANESVILLE     NOT AVBL
NEW PHILLY     MOCLDY    74  70  87 CALM      30.03S
$$



USA.gov is the U.S. government's official web portal to all federal, state and local government web resources and services.